Wind_Speed
20 13 12 35 66 75 76 77 77 76 75 76 81 83 85 89 90 91 101 106 103 97 103 101 100 101 96 91 91 89 84 78 80 83 88 81 77 74 72 72 73 73 68 69 67
20 18 12 13 36 68 75 76 76 77 78 78 77 78 82 86 88 88 91 98 98 98 103 102 101 103 101 102 92 91 84 82 82 84 89 90 86 83 80 81 78 74 71 67 68
21 20 18 16 18 35 67 72 76 75 78 79 79 78 78 84 86 87 91 96 97 97 97 104 109 107 103 104 98 104 90 90 94 97 94 92 87 83 81 78 77 71 72 77 78
24 21 23 23 22 24 35 58 69 76 77 78 81 81 79 79 83 86 89 93 92 95 100 99 99 101 104 106 105 104 101 100 93 95 96 96 92 85 82 82 83 80 78 82 83
27 25 24 27 29 29 30 39 51 66 75 79 80 82 83 83 82 85 91 94 91 93 96 100 101 104 97 99 104 100 97 99 101 98 94 98 95 92 91 87 87 83 79 80 81
28 27 28 30 32 34 36 36 41 52 62 72 80 82 82 84 86 86 88 95 99 101 99 103 102 104 101 104 101 101 100 100 101 106 105 103 100 99 84 85 79 78 82 79 73
32 32 31 32 37 38 40 42 45 45 50 60 70 79 86 86 89 90 92 93 95 99 102 104 108 105 104 104 110 105 108 103 100 101 101 106 97 90 83 79 83 83 82 78 75
29 27 28 32 34 38 44 47 48 50 53 55 58 66 77 85 87 89 92 95 97 99 101 103 105 109 109 109 108 114 115 109 100 105 105 113 105 86 91 94 90 83 78 77 84
29 28 27 27 29 33 37 42 49 53 56 58 60 63 65 71 79 88 93 95 98 101 104 106 107 107 108 111 114 114 111 111 112 110 112 115 99 94 99 108 99 95 91 87 81
33 32 29 27 28 29 30 33 36 42 51 57 62 66 71 72 75 80 85 94 101 101 104 108 110 111 112 113 108 108 113 114 115 114 121 118 99 98 103 102 100 98 94 91 88
26 26 27 27 30 30 31 31 33 36 39 45 51 60 68 74 79 83 87 92 97 101 105 108 110 113 117 118 114 114 113 112 112 114 115 110 104 103 104 106 100 96 97 96 92
25 24 23 25 26 30 32 36 38 41 45 49 53 57 61 67 75 84 88 95 100 103 106 108 109 117 119 119 117 118 117 111 113 115 115 111 99 105 105 102 101 96 92 93 92
24 22 24 24 25 25 27 30 34 39 44 48 52 57 63 66 70 76 83 91 98 103 107 108 114 117 118 120 120 120 118 117 116 116 115 111 104 104 100 104 101 98 98 98 94
25 21 22 25 28 28 31 32 34 38 41 43 49 54 59 62 65 70 73 77 86 92 100 103 112 118 119 119 120 119 118 120 119 118 111 113 102 109 102 99 102 99 96 97 94
25 24 22 24 22 22 23 28 32 34 34 38 42 47 52 57 62 68 71 70 73 81 89 92 103 108 110 115 120 119 119 118 118 116 114 112 108 99 100 100 101 102 102 102 100
26 25 22 22 25 28 31 35 37 40 42 46 49 50 52 58 58 63 67 67 69 75 74 77 89 95 100 103 107 110 115 119 117 115 114 101 110 95 100 98 100 105 106 106 100
30 28 27 29 33 34 37 40 42 45 47 45 51 51 53 59 59 59 59 62 63 63 63 68 74 78 83 90 95 99 103 108 111 113 104 101 103 91 98 100 99 98 98 101 97
32 32 34 36 39 40 42 43 44 44 45 49 50 55 56 59 58 55 58 59 58 51 51 55 61 65 68 72 77 86 95 93 94 97 101 109 103 87 91 94 97 98 96 91 88
34 36 36 37 37 40 41 43 43 45 46 51 55 59 61 62 55 57 54 53 46 42 42 48 54 58 60 62 66 71 77 86 90 88 97 95 95 100 94 88 89 90 90 89 85
33 36 36 37 40 45 47 46 46 51 52 55 56 59 63 64 56 56 48 41 35 34 37 41 46 47 49 54 59 62 68 73 82 81 79 88 89 89 95 91 93 82 76 75 74
36 37 39 40 41 44 47 48 48 51 54 56 59 61 63 63 56 52 42 37 28 26 28 32 35 37 39 43 47 52 58 64 72 72 75 83 83 94 90 89 87 78 71 65 62
38 36 39 44 45 46 48 51 52 53 54 56 60 62 63 61 56 47 34 28 24 22 23 26 27 31 32 34 38 45 49 58 63 65 69 79 83 86 84 84 84 77 70 61 53
41 42 42 47 48 50 50 53 54 56 57 58 61 62 64 60 56 43 36 28 22 21 20 21 22 25 27 27 33 39 44 50 55 56 62 69 73 80 82 85 80 71 64 56 52
45 44 45 49 52 52 51 54 57 58 60 58 58 62 65 62 54 42 33 29 22 20 19 18 19 18 21 22 29 34 40 44 48 54 62 71 79 78 79 78 73 63 60 58 54
41 44 46 50 53 53 54 56 59 58 57 56 55 58 61 61 56 47 38 30 25 21 17 15 14 13 15 18 25 28 34 38 48 54 61 73 74 72 69 70 67 60 56 57 52
34 38 41 44 50 53 52 53 53 51 52 53 53 55 57 58 53 47 37 30 26 20 16 13 11 10 11 16 22 26 31 36 46 53 61 69 70 67 64 69 64 57 57 56 48
33 33 34 38 42 43 42 43 44 46 45 47 50 53 55 56 52 45 36 31 24 19 12 4 4 6 10 14 19 25 31 37 43 53 59 62 64 57 63 64 60 55 58 53 49
Wind_Direction
322 326 276 232 225 225 227 227 228 228 229 230 231 231 232 234 235 234 231 231 236 235 236 236 238 236 239 240 240 237 240 242 243 243 242 242 250 242 249 251 254 258 261 264 262
309 300 300 255 229 226 227 227 228 229 229 230 232 233 233 233 235 237 234 233 235 237 237 237 238 241 241 239 241 242 236 240 242 242 248 248 250 249 252 253 250 260 260 257 261
303 287 273 271 245 232 229 228 229 230 231 232 232 233 235 234 234 237 238 239 237 238 238 237 237 237 241 242 241 239 239 240 245 245 251 252 251 250 250 245 255 254 259 259 259
293 281 266 255 253 242 232 231 230 230 231 232 233 235 236 237 236 238 237 238 239 238 237 240 240 239 240 240 242 240 242 242 242 244 247 247 248 246 246 252 253 253 261 260 259
290 278 261 253 248 246 240 232 234 233 234 234 234 236 237 237 239 238 237 236 238 239 238 239 240 240 240 242 243 243 240 240 241 241 245 245 248 249 253 257 256 258 258 256 259
287 279 267 252 245 243 242 240 237 236 237 237 238 237 238 239 241 241 240 239 240 242 241 239 241 240 242 240 241 242 239 241 240 241 244 248 249 251 253 253 255 257 256 256 260
287 283 272 264 250 243 241 239 239 239 239 239 240 239 240 240 240 241 242 244 244 244 243 242 242 241 242 242 241 242 243 244 240 242 244 245 242 250 247 247 251 254 253 253 257
292 286 279 270 259 255 247 242 240 240 241 241 241 242 243 242 243 244 244 244 245 245 246 246 246 244 244 243 242 243 243 243 244 246 248 247 243 247 245 246 246 246 248 252 256
300 293 280 275 269 261 257 253 249 247 246 246 245 244 245 244 244 244 245 246 246 246 246 246 246 246 246 246 244 243 242 244 242 243 245 247 243 245 247 245 246 249 251 249 250
303 301 299 279 272 266 262 259 255 252 251 251 251 249 249 247 248 246 245 246 246 246 246 246 247 247 247 247 245 245 244 242 241 243 243 245 246 247 247 246 242 244 247 248 251
316 302 293 285 275 269 261 260 258 257 258 257 256 255 254 254 252 250 249 249 247 247 247 246 247 247 247 247 246 245 244 243 243 242 243 243 244 244 246 246 246 245 248 250 255
319 306 290 282 282 277 269 264 263 262 262 262 264 263 263 261 261 258 256 255 253 252 250 249 248 248 247 247 247 246 246 244 243 244 244 243 241 239 242 245 248 250 253 254 255
319 300 288 284 281 279 278 275 272 272 272 270 269 267 265 265 265 264 262 262 260 258 256 254 252 250 250 249 248 248 247 245 244 243 244 243 241 241 243 241 243 250 253 254 256
326 314 299 291 288 285 286 288 288 290 292 290 287 284 282 278 273 272 268 265 262 259 257 256 254 253 250 250 249 248 246 247 246 244 244 244 241 239 239 241 242 246 252 252 254
322 313 310 308 306 301 301 302 300 298 299 299 298 292 290 287 284 281 277 272 267 261 255 254 254 254 253 251 250 248 248 247 246 247 242 243 244 242 242 243 244 245 247 248 250
312 314 307 304 305 305 303 304 303 301 306 307 306 301 300 299 292 286 281 275 269 265 262 256 254 252 252 251 250 248 246 246 245 245 245 242 244 240 243 244 243 244 245 247 249
309 305 302 300 300 301 301 305 306 308 311 310 310 307 308 308 302 293 287 279 273 271 268 260 256 252 249 248 247 247 246 245 243 243 245 244 242 237 240 241 243 244 245 247 250
308 307 302 296 297 299 303 307 309 311 316 317 316 315 315 316 309 300 291 288 285 279 269 261 256 254 251 248 245 242 242 243 242 241 239 238 240 239 238 239 241 242 243 246 248
304 305 305 307 308 309 310 312 311 312 317 321 319 321 320 321 316 306 301 294 290 281 271 263 258 253 250 247 245 240 240 240 239 235 234 232 236 235 237 238 241 241 242 244 246
300 302 306 305 305 305 308 312 314 316 319 322 323 325 326 326 322 315 310 301 293 280 271 262 258 255 250 244 243 238 234 235 237 233 231 230 231 231 233 233 236 238 240 243 244
295 297 303 303 306 307 310 312 317 319 322 324 325 328 330 330 327 321 318 308 300 284 274 266 260 255 250 243 240 236 232 229 230 228 226 227 226 227 228 229 234 236 238 239 240
293 294 299 301 306 309 312 316 318 319 321 324 326 329 332 334 332 327 325 314 308 298 285 272 262 256 250 245 238 234 227 225 224 224 222 220 222 222 225 227 228 228 231 234 235
293 293 293 297 302 306 309 312 317 318 320 324 327 330 334 337 338 337 330 326 317 307 294 281 263 253 247 237 229 226 224 221 220 215 214 213 217 221 221 223 224 224 226 228 231
290 293 296 298 302 306 310 311 312 315 319 324 328 331 335 338 340 340 336 328 324 320 306 285 261 251 244 226 225 218 218 214 211 204 204 205 212 214 215 217 219 218 218 221 227
292 292 293 297 299 301 306 310 311 315 318 324 329 332 335 340 343 345 339 333 335 330 317 297 270 248 239 224 221 217 210 205 201 196 195 201 205 210 210 210 212 208 208 213 220
305 298 298 299 301 303 307 308 312 315 319 324 328 332 337 341 346 345 341 342 340 334 326 314 278 251 226 218 214 202 202 203 196 189 192 197 201 204 201 203 203 201 201 206 213
340 325 314 311 309 310 310 313 317 316 320 324 328 333 337 343 346 348 346 346 347 331 318 308 287 256 219 212 211 199 194 192 193 188 191 194 199 192 196 196 193 194 199 199 205
Height
10654 10652 10650 10651 10659 10667 10675 10684 10692 10700 10705 10710 10715 10723 10730 10735 10740 10748 10754 10757 10767 10776 10779 10786 10792 10798 10804 10811 10817 10824 10843 10848 10846 10842 10834 10839 10853 10862 10871 10873 10878 10884 10889 10889 10888
10653 10651 10649 10649 10650 10656 10663 10671 10679 10685 10691 10696 10703 10711 10716 10721 10727 10732 10737 10744 10752 10757 10760 10767 10774 10781 10788 10796 10804 10812 10827 10833 10824 10826 10817 10817 10841 10851 10858 10863 10870 10875 10878 10880 10879
10650 10648 10647 10646 10646 10647 10652 10659 10666 10672 10677 10684 10689 10693 10701 10706 10711 10720 10721 10723 10730 10736 10741 10747 10753 10762 10771 10778 10790 10796 10817 10811 10810 10811 10803 10805 10826 10833 10843 10854 10858 10863 10868 10869 10868
10644 10643 10643 10643 10642 10642 10644 10649 10653 10659 10664 10670 10675 10680 10686 10690 10697 10699 10703 10709 10714 10720 10726 10731 10736 10745 10753 10763 10764 10774 10792 10794 10794 10794 10793 10796 10798 10821 10831 10844 10843 10853 10855 10856 10858
10637 10636 10636 10636 10636 10637 10638 10640 10643 10647 10652 10657 10661 10666 10671 10675 10679 10684 10687 10691 10697 10702 10708 10713 10718 10722 10737 10741 10741 10764 10770 10772 10775 10778 10780 10776 10789 10802 10820 10826 10832 10838 10842 10844 10845
10629 10628 10628 10628 10628 10629 10632 10634 10635 10638 10640 10643 10648 10652 10656 10660 10663 10666 10670 10675 10681 10684 10690 10693 10696 10703 10714 10722 10730 10736 10742 10750 10758 10761 10766 10765 10775 10774 10813 10811 10817 10822 10826 10829 10833
10620 10618 10618 10618 10619 10620 10621 10624 10625 10627 10628 10631 10633 10637 10640 10643 10646 10650 10654 10656 10659 10663 10667 10671 10674 10681 10691 10699 10708 10716 10722 10729 10742 10749 10750 10745 10752 10785 10790 10795 10796 10809 10810 10813 10820
10609 10608 10607 10607 10608 10609 10611 10613 10614 10616 10617 10618 10620 10622 10624 10627 10630 10632 10634 10638 10640 10642 10644 10648 10652 10662 10668 10675 10683 10688 10693 10709 10739 10728 10731 10714 10748 10778 10770 10772 10781 10788 10796 10800 10805
10602 10600 10598 10597 10597 10599 10599 10601 10604 10605 10606 10608 10608 10608 10609 10609 10612 10614 10614 10615 10617 10619 10621 10623 10628 10636 10641 10648 10651 10663 10681 10693 10700 10702 10697 10693 10742 10750 10746 10748 10765 10769 10778 10788 10793
10597 10594 10592 10591 10590 10590 10590 10590 10591 10592 10592 10593 10593 10595 10591 10593 10593 10593 10592 10592 10593 10595 10597 10600 10605 10612 10615 10614 10634 10643 10647 10658 10664 10676 10667 10685 10726 10733 10721 10727 10748 10752 10760 10768 10774
10592 10588 10586 10584 10583 10583 10583 10582 10582 10582 10581 10581 10579 10578 10574 10572 10573 10572 10571 10571 10568 10570 10573 10578 10582 10585 10583 10589 10608 10611 10620 10638 10646 10649 10655 10675 10706 10705 10708 10711 10728 10740 10744 10754 10760
10587 10584 10582 10579 10577 10575 10575 10575 10574 10572 10571 10568 10566 10563 10560 10556 10552 10552 10552 10549 10547 10546 10549 10553 10559 10548 10556 10563 10577 10582 10596 10616 10618 10624 10632 10653 10683 10683 10690 10706 10712 10723 10734 10739 10742
10582 10578 10576 10574 10571 10568 10566 10565 10563 10561 10558 10557 10553 10549 10543 10539 10535 10530 10527 10522 10519 10520 10521 10529 10523 10522 10528 10535 10547 10556 10567 10580 10593 10597 10609 10629 10657 10664 10676 10690 10701 10707 10714 10718 10724
10575 10572 10569 10566 10564 10561 10558 10555 10552 10548 10544 10541 10535 10529 10523 10517 10513 10505 10501 10498 10489 10488 10485 10493 10482 10487 10495 10505 10511 10522 10538 10544 10557 10570 10600 10599 10635 10637 10656 10672 10681 10694 10696 10702 10703
10570 10566 10563 10559 10556 10553 10550 10546 10542 10537 10533 10527 10521 10513 10505 10498 10490 10478 10471 10467 10461 10451 10452 10455 10452 10454 10462 10471 10477 10496 10504 10515 10527 10545 10565 10584 10601 10635 10647 10658 10668 10670 10674 10679 10681
10563 10559 10555 10552 10548 10545 10541 10537 10532 10527 10520 10512 10503 10495 10487 10476 10467 10456 10445 10438 10430 10420 10425 10425 10420 10424 10428 10434 10446 10460 10470 10482 10501 10515 10527 10576 10574 10621 10621 10634 10641 10646 10650 10660 10675
10555 10552 10548 10544 10540 10536 10531 10526 10520 10512 10506 10498 10487 10478 10469 10456 10442 10430 10419 10408 10402 10400 10397 10395 10391 10392 10398 10406 10416 10427 10438 10449 10468 10489 10521 10549 10545 10594 10602 10609 10615 10624 10637 10643 10661
10546 10542 10539 10534 10530 10524 10519 10514 10506 10499 10490 10481 10472 10459 10451 10438 10420 10407 10395 10386 10379 10375 10371 10369 10368 10368 10375 10381 10391 10402 10412 10427 10445 10471 10494 10502 10521 10572 10576 10582 10592 10603 10614 10630 10646
10537 10533 10529 10524 10519 10513 10508 10502 10494 10486 10479 10468 10454 10442 10430 10416 10405 10389 10376 10364 10358 10354 10351 10349 10347 10349 10355 10362 10368 10377 10391 10406 10418 10435 10448 10486 10506 10528 10550 10568 10571 10583 10603 10618 10634
10529 10523 10518 10514 10509 10502 10496 10490 10484 10472 10464 10454 10443 10430 10415 10398 10384 10370 10356 10347 10342 10337 10334 10334 10331 10334 10339 10343 10349 10358 10367 10383 10394 10412 10438 10464 10491 10516 10524 10546 10545 10570 10591 10605 10624
10519 10513 10508 10503 10499 10492 10484 10478 10472 10461 10452 10441 10428 10416 10402 10385 10370 10354 10342 10331 10327 10324 10322 10320 10320 10321 10324 10328 10335 10342 10354 10364 10374 10394 10416 10443 10472 10481 10503 10521 10539 10560 10577 10592 10608
10508 10505 10498 10492 10489 10482 10474 10465 10460 10450 10442 10431 10417 10404 10390 10375 10357 10341 10332 10323 10318 10314 10312 10309 10309 10309 10312 10317 10323 10328 10339 10348 10361 10380 10403 10421 10437 10465 10489 10508 10520 10546 10563 10580 10597
10496 10495 10490 10482 10478 10471 10465 10456 10448 10439 10431 10421 10407 10392 10378 10365 10350 10334 10323 10317 10310 10306 10303 10300 10299 10300 10301 10306 10311 10317 10327 10335 10347 10364 10388 10410 10434 10450 10471 10485 10506 10536 10555 10571 10581
10486 10484 10480 10472 10467 10461 10454 10445 10438 10429 10419 10412 10399 10384 10369 10354 10343 10330 10320 10311 10304 10299 10296 10293 10292 10293 10294 10298 10302 10309 10315 10324 10337 10351 10370 10392 10409 10429 10449 10475 10496 10525 10543 10558 10566
10475 10473 10470 10464 10457 10452 10445 10437 10427 10420 10411 10402 10393 10380 10366 10351 10333 10321 10313 10306 10300 10294 10292 10290 10289 10289 10290 10294 10297 10304 10311 10318 10324 10339 10358 10376 10395 10419 10444 10466 10488 10514 10535 10546 10557
10466 10462 10459 10455 10447 10442 10436 10427 10418 10411 10401 10393 10384 10374 10361 10348 10334 10321 10311 10303 10296 10292 10289 10288 10286 10286 10287 10290 10292 10298 10306 10313 10323 10336 10354 10369 10393 10413 10439 10454 10480 10505 10523 10537 10550
10461 10455 10450 10446 10437 10430 10423 10417 10410 10400 10395 10385 10376 10367 10356 10343 10331 10319 10309 10301 10296 10291 10288 10285 10284 10285 10285 10287 10291 10297 10302 10309 10322 10336 10351 10372 10388 10412 10431 10451 10478 10498 10513 10530 10543